TimeCDT,TemperatureF,Dew PointF,Humidity,Sea Level PressureIn,VisibilityMPH,Wind Direction,Wind SpeedMPH,Gust SpeedMPH,PrecipitationIn,Events,Conditions,WindDirDegrees,DateUTC
12:15 AM,44.2,39.9,85,30.15,10.0,West,3.5,-,N/A,,Clear,260,2013-10-13 05:15:00
12:35 AM,43.9,40.1,87,30.16,10.0,WSW,5.8,-,N/A,,Clear,250,2013-10-13 05:35:00
12:55 AM,43.7,40.1,87,30.18,10.0,WSW,6.9,-,N/A,,Clear,240,2013-10-13 05:55:00
1:15 AM,42.8,39.6,88,30.18,10.0,West,4.6,-,N/A,,Clear,260,2013-10-13 06:15:00
1:35 AM,42.4,39.6,90,30.19,10.0,WSW,5.8,-,N/A,,Clear,250,2013-10-13 06:35:00
1:55 AM,42.1,39.4,90,30.21,10.0,WSW,4.6,-,N/A,,Clear,240,2013-10-13 06:55:00
2:15 AM,41.5,39.2,91,30.21,10.0,West,3.5,-,N/A,,Clear,270,2013-10-13 07:15:00
2:35 AM,41.2,39.0,92,30.22,10.0,West,3.5,-,N/A,,Clear,260,2013-10-13 07:35:00
2:55 AM,40.5,38.7,93,30.23,10.0,West,5.8,-,N/A,,Clear,260,2013-10-13 07:55:00
3:15 AM,40.5,38.7,93,30.23,10.0,West,4.6,-,N/A,,Clear,260,2013-10-13 08:15:00
3:35 AM,40.8,39.0,93,30.24,10.0,West,5.8,-,N/A,,Clear,260,2013-10-13 08:35:00
3:55 AM,40.3,38.7,94,30.24,10.0,West,4.6,-,N/A,,Clear,260,2013-10-13 08:55:00
4:15 AM,40.1,38.5,94,30.25,10.0,West,4.6,-,N/A,,Clear,270,2013-10-13 09:15:00
4:35 AM,40.1,38.3,93,30.26,10.0,West,4.6,-,N/A,,Clear,270,2013-10-13 09:35:00
4:55 AM,39.7,38.3,95,30.26,10.0,West,5.8,-,N/A,,Clear,270,2013-10-13 09:55:00
5:15 AM,39.2,37.6,94,30.26,10.0,Calm,Calm,-,N/A,,Clear,0,2013-10-13 10:15:00
5:35 AM,38.7,37.4,95,30.27,10.0,Calm,Calm,-,N/A,,Clear,0,2013-10-13 10:35:00
5:55 AM,37.8,36.5,95,30.28,10.0,West,3.5,-,N/A,,Clear,280,2013-10-13 10:55:00
6:15 AM,37.9,36.9,96,30.30,10.0,West,4.6,-,N/A,,Clear,260,2013-10-13 11:15:00
6:35 AM,37.8,36.5,95,30.31,10.0,West,4.6,-,N/A,,Clear,260,2013-10-13 11:35:00
6:55 AM,37.6,36.3,95,30.32,10.0,West,5.8,-,N/A,,Clear,270,2013-10-13 11:55:00
7:15 AM,37.4,36.0,95,30.33,10.0,West,3.5,-,N/A,,Clear,270,2013-10-13 12:15:00
7:35 AM,37.0,35.8,95,30.34,10.0,West,4.6,-,N/A,,Clear,270,2013-10-13 12:35:00
7:55 AM,37.8,36.5,95,30.35,10.0,West,3.5,-,N/A,,Clear,270,2013-10-13 12:55:00
8:15 AM,38.3,37.2,96,30.35,10.0,Calm,Calm,-,N/A,,Clear,0,2013-10-13 13:15:00
8:35 AM,39.9,38.3,94,30.36,10.0,WSW,4.6,-,N/A,,Clear,250,2013-10-13 13:35:00
8:55 AM,41.5,39.4,92,30.37,10.0,West,3.5,-,N/A,,Clear,270,2013-10-13 13:55:00
9:15 AM,43.3,39.9,88,30.38,10.0,West,5.8,-,N/A,,Clear,280,2013-10-13 14:15:00
9:35 AM,45.0,39.9,82,30.39,10.0,WNW,4.6,-,N/A,,Clear,290,2013-10-13 14:35:00
9:55 AM,46.6,39.4,76,30.40,10.0,WNW,5.8,-,N/A,,Clear,300,2013-10-13 14:55:00
10:15 AM,47.7,38.8,71,30.40,10.0,West,9.2,-,N/A,,Clear,280,2013-10-13 15:15:00
10:55 AM,50.2,37.9,63,30.41,10.0,WNW,6.9,-,N/A,,Clear,290,2013-10-13 15:55:00
11:15 AM,51.4,36.7,57,30.41,10.0,West,6.9,-,N/A,,Clear,280,2013-10-13 16:15:00
11:35 AM,52.3,32.4,47,30.42,10.0,WNW,8.1,17.3,N/A,,Clear,300,2013-10-13 16:35:00
11:55 AM,53.2,31.8,44,30.42,10.0,WNW,10.4,-,N/A,,Clear,290,2013-10-13 16:55:00
12:15 PM,53.8,30.9,42,30.42,10.0,WNW,8.1,-,N/A,,Clear,300,2013-10-13 17:15:00
12:35 PM,54.1,27.7,36,30.41,10.0,West,9.2,-,N/A,,Clear,270,2013-10-13 17:35:00
12:55 PM,55.0,28.9,37,30.41,10.0,West,8.1,-,N/A,,Clear,280,2013-10-13 17:55:00
1:15 PM,55.0,27.3,34,30.41,10.0,WNW,6.9,-,N/A,,Clear,300,2013-10-13 18:15:00
1:35 PM,55.4,27.1,34,30.40,10.0,WNW,5.8,-,N/A,,Clear,290,2013-10-13 18:35:00
1:55 PM,54.7,26.8,34,30.40,10.0,WNW,5.8,-,N/A,,Clear,290,2013-10-13 18:55:00
2:15 PM,56.3,27.0,32,30.39,10.0,North,6.9,-,N/A,,Clear,350,2013-10-13 19:15:00
2:35 PM,55.9,27.9,34,30.38,10.0,NNW,3.5,-,N/A,,Clear,330,2013-10-13 19:35:00
2:55 PM,55.2,27.9,35,30.38,10.0,Calm,Calm,-,N/A,,Clear,0,2013-10-13 19:55:00
3:15 PM,56.5,27.0,32,30.38,10.0,NNW,6.9,-,N/A,,Clear,330,2013-10-13 20:15:00
3:35 PM,56.7,28.2,34,30.38,10.0,North,4.6,-,N/A,,Clear,350,2013-10-13 20:35:00
3:55 PM,56.7,27.5,33,30.38,10.0,West,5.8,-,N/A,,Clear,280,2013-10-13 20:55:00
4:15 PM,56.5,26.6,32,30.38,10.0,West,4.6,-,N/A,,Clear,280,2013-10-13 21:15:00
4:35 PM,56.5,27.9,33,30.38,10.0,NNW,5.8,-,N/A,,Clear,330,2013-10-13 21:35:00
4:55 PM,56.3,28.4,34,30.38,10.0,West,3.5,-,N/A,,Clear,280,2013-10-13 21:55:00
5:15 PM,55.9,27.7,34,30.38,10.0,NW,3.5,-,N/A,,Clear,310,2013-10-13 22:15:00
5:35 PM,55.4,27.9,35,30.38,10.0,Calm,Calm,-,N/A,,Clear,0,2013-10-13 22:35:00
5:55 PM,54.3,29.7,39,30.38,10.0,Calm,Calm,-,N/A,,Clear,0,2013-10-13 22:55:00
6:15 PM,53.6,28.6,38,30.38,10.0,Calm,Calm,-,N/A,,Clear,0,2013-10-13 23:15:00
6:35 PM,50.0,31.8,50,30.39,10.0,Calm,Calm,-,N/A,,Clear,0,2013-10-13 23:35:00
6:55 PM,47.8,32.4,55,30.39,10.0,Calm,Calm,-,N/A,,Clear,0,2013-10-13 23:55:00
7:15 PM,46.4,34.2,62,30.39,10.0,Calm,Calm,-,N/A,,Clear,0,2013-10-14 00:15:00
7:35 PM,44.2,34.7,69,30.40,10.0,Calm,Calm,-,N/A,,Clear,0,2013-10-14 00:35:00
7:55 PM,42.4,34.9,75,30.40,10.0,Calm,Calm,-,N/A,,Clear,0,2013-10-14 00:55:00
8:15 PM,41.5,36.3,82,30.40,10.0,Calm,Calm,-,N/A,,Clear,0,2013-10-14 01:15:00
8:35 PM,39.6,35.4,85,30.41,10.0,Calm,Calm,-,N/A,,Clear,0,2013-10-14 01:35:00
8:55 PM,40.1,36.1,86,30.41,10.0,Calm,Calm,-,N/A,,Clear,0,2013-10-14 01:55:00
9:15 PM,39.2,36.1,89,30.41,10.0,Calm,Calm,-,N/A,,Clear,0,2013-10-14 02:15:00
9:35 PM,39.0,36.0,89,30.41,10.0,Calm,Calm,-,N/A,,Clear,0,2013-10-14 02:35:00
9:55 PM,38.7,36.0,90,30.41,10.0,Calm,Calm,-,N/A,,Clear,0,2013-10-14 02:55:00
10:15 PM,37.8,35.4,91,30.41,10.0,Calm,Calm,-,N/A,,Clear,0,2013-10-14 03:15:00
10:35 PM,36.7,34.9,93,30.41,10.0,Calm,Calm,-,N/A,,Clear,0,2013-10-14 03:35:00
10:55 PM,36.3,34.9,95,30.41,10.0,Calm,Calm,-,N/A,,Clear,0,2013-10-14 03:55:00
11:15 PM,36.0,34.9,96,30.42,10.0,Calm,Calm,-,N/A,,Clear,0,2013-10-14 04:15:00
11:35 PM,35.6,34.5,96,30.41,10.0,Calm,Calm,-,N/A,,Clear,0,2013-10-14 04:35:00
11:55 PM,35.4,34.2,95,30.41,10.0,Calm,Calm,-,N/A,,Clear,0,2013-10-14 04:55:00